Eugene, Missouri, United States (65032)
Lat: 38.35N, Lon: 92.4W
Wx Zone: MOZ048
Local Info
Past Weather Observations for Today

NOTE: This archive is for the closest National Weather Service station to Eugene. Information may differ from the station used for current weather conditions.

Click here for Long-term Archive

Time Weather Temperature Dewpoint Humidity Pressure Winds Precip Visibility
17:35
Clear
84°F / 29°C 64°F / 18°C 51% 30.09 in
(1019 mb)
N 3.5 mph
(N 6 kph)
- 10SM
17:15
Clear
84°F / 29°C 66°F / 19°C 55% 30.09 in
(1019 mb)
N 5.8 mph
(N 9 kph)
- 10SM
16:55
Clear
84°F / 29°C 66°F / 19°C 55% 30.09 in
(1019 mb)
N 6.9 mph
(N 11 kph)
- 10SM
16:35
Clear
86°F / 30°C 64°F / 18°C 49% 30.09 in
(1019 mb)
N 5.8 mph
(N 9 kph)
- 10SM
16:15
Clear
86°F / 30°C 66°F / 19°C 52% 30.09 in
(1019 mb)
NE 6.9 mph
(NE 11 kph)
- 10SM
15:55
Clear
86°F / 30°C 70°F / 21°C 59% 30.09 in
(1019 mb)
NNW 8.1 mph
(NNW 13 kph)
- 10SM
15:35
Partly Cloudy
84°F / 29°C 66°F / 19°C 55% 30.09 in
(1019 mb)
N 4.6 mph
(N 7 kph)
- 9SM
15:15
Partly Cloudy
88°F / 31°C 68°F / 20°C 52% 30.09 in
(1019 mb)
NNE 9.2 mph
(NNE 15 kph)
- 10SM
14:55
Clear
88°F / 31°C 68°F / 20°C 52% 30.09 in
(1019 mb)
N 8.1 mph
(N 13 kph)
- 10SM
14:35
Clear
88°F / 31°C 68°F / 20°C 52% 30.09 in
(1019 mb)
N 3.5 mph
(N 6 kph)
- 10SM
14:15
Clear
86°F / 30°C 68°F / 20°C 55% 30.12 in
(1020 mb)
NE 8.1 mph
(NE 13 kph)
- 10SM
13:55
Partly Cloudy
84°F / 29°C 68°F / 20°C 58% 30.12 in
(1020 mb)
N 5.8 mph
(N 9 kph)
- 10SM
13:35
Overcast
84°F / 29°C 70°F / 21°C 62% 30.12 in
(1020 mb)
N 5.8 mph
(N 9 kph)
- 10SM
13:15
Mostly Cloudy
84°F / 29°C 68°F / 20°C 58% 30.12 in
(1020 mb)
NNE 6.9 mph
(NNE 11 kph)
- 10SM
12:55
Partly Cloudy
84°F / 29°C 70°F / 21°C 62% 30.09 in
(1019 mb)
NE 8.1 mph
(NE 13 kph)
- 10SM
12:35
Partly Cloudy
84°F / 29°C 70°F / 21°C 62% 30.09 in
(1019 mb)
N 5.8 mph
(N 9 kph)
- 10SM
12:15
Partly Cloudy
84°F / 29°C 70°F / 21°C 62% 30.09 in
(1019 mb)
NE 6.9 mph
(NE 11 kph)
- 10SM
11:55
Partly Cloudy
84°F / 29°C 70°F / 21°C 62% 30.12 in
(1020 mb)
NE 6.9 mph
(NE 11 kph)
- 10SM
11:35
Mostly Cloudy
82°F / 28°C 70°F / 21°C 66% 30.12 in
(1020 mb)
N 3.5 mph
(N 6 kph)
- 10SM
11:15
Overcast
82°F / 28°C 70°F / 21°C 66% 30.12 in
(1020 mb)
N 9.2 mph
(N 15 kph)
- 10SM
10:55
Mostly Cloudy
81°F / 27°C 70°F / 21°C 70% 30.12 in
(1020 mb)
NE 10.4 mph
(NE 17 kph)
- 10SM
10:35
Mostly Cloudy
82°F / 28°C 70°F / 21°C 66% 30.12 in
(1020 mb)
N 9.2 mph
(N 15 kph)
- 10SM
10:15
Mostly Cloudy
82°F / 28°C 70°F / 21°C 66% 30.12 in
(1020 mb)
N 11.5 mph
(N 19 kph)
- 10SM
09:55
Mostly Cloudy
82°F / 28°C 70°F / 21°C 66% 30.12 in
(1020 mb)
N 6.9 mph
(N 11 kph)
- 10SM
09:35
Clear
82°F / 28°C 70°F / 21°C 66% 30.09 in
(1019 mb)
N 6.9 mph
(N 11 kph)
- 10SM
09:15
Clear
82°F / 28°C 70°F / 21°C 66% 30.09 in
(1019 mb)
N 8.1 mph
(N 13 kph)
- 10SM
08:55
Clear
82°F / 28°C 70°F / 21°C 66% 30.09 in
(1019 mb)
Calm - 10SM
08:35
Clear
81°F / 27°C 70°F / 21°C 70% 30.06 in
(1018 mb)
Calm - 10SM
08:15
Clear
81°F / 27°C 68°F / 20°C 66% 30.06 in
(1018 mb)
S 4.6 mph
(S 7 kph)
- 10SM
07:55
Clear
81°F / 27°C 68°F / 20°C 66% 30.06 in
(1018 mb)
S 4.6 mph
(S 7 kph)
- 10SM
07:35
Clear
79°F / 26°C 68°F / 20°C 70% 30.06 in
(1018 mb)
Calm - 10SM
07:15
Clear
77°F / 25°C 68°F / 20°C 74% 30.06 in
(1018 mb)
Calm - 10SM
06:55
Clear
N/A N/A N/A 30.06 in
(1018 mb)
Calm - 10SM
06:35
Clear
75°F / 24°C 68°F / 20°C 78% 30.06 in
(1018 mb)
Calm - 10SM
06:15
Clear
75°F / 24°C 70°F / 21°C 83% 30.06 in
(1018 mb)
Calm - 10SM
05:55
Clear
73°F / 23°C 70°F / 21°C 89% 30.06 in
(1018 mb)
Calm - 10SM
05:35
Clear
75°F / 24°C 68°F / 20°C 78% 30.06 in
(1018 mb)
Calm - 10SM
05:15
Clear
73°F / 23°C 70°F / 21°C 89% 30.06 in
(1018 mb)
NNW 3.5 mph
(NNW 6 kph)
- 10SM
04:55
Clear
75°F / 24°C 70°F / 21°C 83% 30.06 in
(1018 mb)
Calm - 10SM
04:35
Partly Cloudy
75°F / 24°C 72°F / 22°C 89% 30.06 in
(1018 mb)
NNW 3.5 mph
(NNW 6 kph)
- 10SM
04:15
Mostly Cloudy
75°F / 24°C 72°F / 22°C 89% 30.06 in
(1018 mb)
NNW 8.1 mph
(NNW 13 kph)
- 3SM
03:55
Clear
75°F / 24°C 72°F / 22°C 89% 30.04 in
(1017 mb)
Calm - 5SM
03:35
Clear
75°F / 24°C 72°F / 22°C 89% 30.04 in
(1017 mb)
Calm - 5SM
03:15
Clear
75°F / 24°C 72°F / 22°C 89% 30.04 in
(1017 mb)
Calm - 5SM
02:55
Clear
75°F / 24°C 73°F / 23°C 94% 30.01 in
(1016 mb)
Calm - 6SM
02:35
Clear
75°F / 24°C 73°F / 23°C 94% 30.01 in
(1016 mb)
Calm - 4SM
02:15
Clear
75°F / 24°C 73°F / 23°C 94% 30.01 in
(1016 mb)
Calm - 5SM
01:55
Clear
75°F / 24°C 73°F / 23°C 94% 30.01 in
(1016 mb)
Calm - 5SM
01:35
Clear
75°F / 24°C 73°F / 23°C 94% 30.01 in
(1016 mb)
Calm - 3SM
01:15
Clear
79°F / 26°C 73°F / 23°C 84% 30.01 in
(1016 mb)
S 3.5 mph
(S 6 kph)
- 6SM
00:55
Clear
79°F / 26°C 73°F / 23°C 84% 30.01 in
(1016 mb)
SSE 3.5 mph
(SSE 6 kph)
- 7SM
00:35
Clear
79°F / 26°C 73°F / 23°C 84% 30.01 in
(1016 mb)
SSE 3.5 mph
(SSE 6 kph)
- 5SM
00:15
Clear
79°F / 26°C 73°F / 23°C 84% 30.01 in
(1016 mb)
SE 3.5 mph
(SE 6 kph)
- 8SM
Time Weather Temperature Dewpoint Humidity Pressure Winds Precip Visibility


Weather for websites

WeatherForYou.com, LLC is not responsible for any damages or problems caused by this service. Current weather conditions are obtained from the closest station including government and personal stations which may have varying degrees of accuracy. Weather forecasts are derived from the NOAA NDFD. Like all things, this site belongs to Jesus Christ... He just trusts us to maintain it. If you have any questions or comments email webmaster@weatherforyou.com

Copyright © 2015, WeatherForYou.com LLC. All rights reserved.